Temp
8 8 7 8 7 7 7 7 6 6 6 6 6 6 6 6 6 6 6 6 7 7 7 8 8 8 8 9 9 9 8 7 8 10 11 14 13 14 14 14 14 15 15 15 15
6 8 8 8 7 8 7 7 6 7 6 6 6 6 6 6 6 6 6 6 7 7 7 7 8 8 8 9 9 8 5 8 9 10 10 12 12 12 13 12 13 14 14 15 15
5 6 6 6 7 7 7 6 7 7 6 5 6 6 6 6 6 6 6 6 7 7 7 7 8 8 9 9 9 8 7 8 9 10 11 11 11 12 11 10 12 12 13 13 13
5 5 5 7 7 8 7 7 7 6 5 5 5 5 5 5 6 5 6 5 7 7 7 7 7 7 8 8 9 7 9 9 9 10 10 10 11 11 11 11 12 12 12 12 12
5 5 5 7 7 7 7 6 6 6 5 5 5 5 5 6 6 6 6 6 6 6 7 7 7 7 7 8 9 8 9 10 10 10 10 11 10 10 11 11 12 11 11 11 11
4 5 5 6 7 6 7 6 6 5 5 6 5 5 6 6 6 6 6 6 6 6 6 7 7 7 7 7 7 8 8 8 9 8 9 9 9 9 10 10 10 10 11 11 11
4 4 5 5 6 6 4 5 6 5 6 6 5 5 5 5 5 5 5 5 6 6 6 6 6 6 6 6 7 8 6 7 8 8 8 9 8 8 10 10 10 10 10 10 11
5 5 5 5 5 6 5 5 6 6 5 5 5 5 5 5 5 5 5 5 6 6 6 6 6 6 6 6 7 6 6 5 8 8 8 8 6 9 10 10 10 10 11 11 11
4 5 5 5 6 5 5 5 6 5 5 5 5 5 5 5 5 5 5 6 6 5 5 6 5 5 6 5 4 5 2 4 5 8 8 9 7 8 9 9 9 10 11 11 11
4 5 5 5 5 5 5 5 5 5 4 5 5 5 5 5 5 5 5 5 6 6 5 5 5 4 4 3 1 1 3 4 4 5 6 6 6 7 8 9 9 9 10 10 11
5 6 5 5 5 5 4 4 4 4 4 5 5 5 5 5 5 5 5 5 6 6 5 5 3 2 3 3 4 4 3 2 4 6 5 5 6 7 8 8 8 9 9 10 10
3 3 4 4 4 5 4 4 4 5 4 4 5 5 5 5 6 5 5 5 6 5 4 2 2 4 5 6 5 4 2 2 4 6 5 5 5 6 7 7 8 8 9 9 10
4 4 4 4 4 4 4 4 5 5 4 5 5 6 5 5 6 5 5 6 6 5 5 2 4 6 6 4 3 3 3 3 3 5 5 5 4 5 7 8 8 8 9 9 9
4 4 4 4 4 4 4 4 5 5 1 4 5 5 5 6 6 5 5 5 5 5 4 2 4 5 5 4 4 2 4 5 4 2 2 5 3 5 6 6 7 8 8 9 9
4 4 4 4 3 3 4 4 5 5 0 6 6 6 6 6 6 5 6 5 4 5 3 3 4 5 4 5 6 3 5 4 1 -0 1 4 2 4 6 6 7 6 7 9 9
4 3 3 3 4 4 4 4 5 2 2 4 6 6 5 6 6 6 6 5 5 4 4 3 6 5 4 5 5 5 3 2 0 -1 1 4 3 2 5 5 5 6 6 8 10
4 3 4 4 3 3 4 4 1 -0 6 3 5 6 3 5 5 5 5 4 2 -1 -2 2 4 5 5 2 3 3 2 -1 -1 -2 1 4 4 4 4 4 5 5 5 7 8
4 3 4 4 3 3 4 3 1 6 4 7 6 4 4 5 3 3 2 -0 4 2 1 -2 1 1 4 3 3 3 3 2 3 4 5 4 5 5 4 5 5 6 6 8 9
3 4 4 3 4 4 3 -1 5 5 7 4 4 -0 3 4 3 -2 -1 -0 3 3 1 2 2 5 6 4 2 3 3 3 3 2 4 4 6 4 5 5 5 6 7 8 10
4 4 4 4 4 4 1 4 5 6 6 5 2 4 -1 -0 -1 -2 -3 3 3 5 4 1 1 4 6 6 3 3 3 4 3 4 7 6 5 5 3 3 3 6 7 8 9
4 4 4 4 5 3 -0 3 6 7 7 7 6 6 5 2 1 -1 -2 1 4 4 4 3 0 3 5 4 4 4 4 4 5 6 7 7 6 3 2 3 5 6 6 7 8
3 -0 4 5 4 2 0 6 8 7 7 8 8 7 7 4 1 -1 -0 0 5 5 3 4 2 1 5 7 5 3 5 6 7 6 5 6 6 3 3 5 6 6 6 7 7
4 3 5 4 -0 1 6 6 7 7 7 7 7 7 8 7 4 4 3 5 5 5 3 3 2 2 4 6 7 5 5 6 6 5 6 6 6 4 4 4 6 6 7 7 7
4 1 4 5 5 4 5 6 6 7 7 8 7 8 7 7 6 6 6 5 5 5 5 4 3 5 3 5 5 6 5 5 6 6 6 6 6 4 3 3 5 5 6 6 6
5 2 4 -1 3 4 4 6 6 6 7 7 7 7 7 6 6 6 6 5 5 5 5 3 3 6 6 6 6 6 6 6 5 5 6 5 5 5 4 4 4 5 5 5 5
4 4 4 4 5 4 4 5 6 6 5 6 6 7 6 5 5 5 5 5 5 5 -0 3 3 6 6 7 6 5 6 5 6 6 6 6 5 6 5 4 4 4 4 4 4
5 4 4 4 3 3 2 5 5 6 6 6 5 4 5 5 5 5 5 5 6 5 4 4 2 4 2 6 7 5 5 5 6 7 6 6 6 6 5 5 4 4 3 3 3
Height
1476 1479 1478 1480 1482 1483 1483 1483 1484 1484 1484 1484 1485 1488 1489 1491 1492 1492 1494 1495 1493 1495 1496 1496 1498 1501 1502 1504 1507 1508 1511 1512 1508 1504 1501 1497 1496 1492 1492 1491 1490 1491 1491 1492 1494
1472 1474 1476 1474 1477 1479 1480 1481 1482 1482 1483 1484 1484 1488 1490 1490 1491 1492 1495 1496 1495 1495 1496 1498 1499 1501 1503 1504 1506 1507 1511 1506 1502 1500 1500 1498 1497 1495 1491 1489 1489 1488 1488 1490 1492
1469 1469 1470 1472 1470 1475 1478 1478 1480 1480 1482 1484 1486 1488 1489 1490 1492 1493 1493 1495 1494 1494 1496 1498 1499 1500 1502 1503 1503 1502 1502 1501 1500 1499 1498 1498 1494 1493 1491 1489 1489 1490 1490 1490 1491
1467 1465 1465 1467 1468 1471 1476 1477 1479 1480 1482 1484 1486 1486 1489 1491 1494 1493 1492 1493 1495 1496 1496 1498 1500 1499 1501 1501 1500 1501 1497 1498 1498 1496 1494 1493 1492 1487 1486 1486 1488 1488 1488 1487 1487
1465 1463 1462 1464 1467 1467 1471 1475 1477 1479 1481 1482 1485 1486 1489 1491 1493 1493 1493 1495 1496 1497 1497 1498 1500 1499 1500 1499 1499 1496 1494 1493 1493 1492 1491 1489 1486 1484 1480 1481 1484 1484 1483 1482 1482
1463 1462 1461 1461 1466 1463 1470 1474 1476 1477 1480 1481 1484 1487 1489 1492 1493 1494 1495 1496 1497 1497 1496 1497 1499 1498 1497 1498 1500 1495 1492 1491 1490 1489 1487 1486 1481 1482 1477 1478 1479 1478 1476 1475 1475
1461 1461 1460 1462 1464 1465 1469 1473 1475 1476 1478 1481 1485 1488 1490 1494 1494 1494 1496 1497 1497 1496 1496 1496 1498 1499 1497 1497 1497 1495 1494 1489 1486 1484 1483 1483 1473 1472 1470 1473 1471 1470 1468 1467 1468
1461 1460 1459 1459 1463 1466 1468 1473 1476 1477 1480 1483 1486 1489 1491 1493 1494 1495 1497 1497 1496 1495 1496 1495 1498 1498 1496 1498 1497 1497 1494 1493 1482 1481 1480 1484 1465 1467 1465 1467 1463 1462 1460 1458 1457
1459 1459 1459 1460 1462 1466 1470 1474 1477 1479 1482 1485 1488 1489 1492 1494 1494 1495 1497 1497 1496 1496 1495 1497 1497 1497 1497 1499 1502 1498 1502 1493 1485 1478 1479 1476 1462 1461 1462 1461 1456 1454 1454 1453 1451
1457 1457 1459 1463 1465 1468 1473 1477 1481 1484 1487 1488 1491 1493 1495 1495 1494 1496 1496 1497 1496 1495 1497 1496 1495 1496 1497 1502 1513 1507 1498 1488 1485 1480 1478 1475 1462 1457 1458 1456 1451 1446 1446 1445 1443
1454 1453 1459 1463 1467 1470 1476 1478 1487 1490 1489 1491 1493 1493 1495 1496 1496 1497 1497 1497 1495 1494 1494 1494 1498 1501 1496 1497 1493 1493 1495 1493 1480 1479 1480 1471 1460 1447 1447 1447 1443 1441 1437 1437 1436
1460 1460 1465 1468 1470 1474 1478 1481 1484 1486 1491 1493 1494 1494 1495 1497 1497 1497 1497 1497 1494 1494 1494 1499 1497 1489 1489 1489 1490 1490 1491 1488 1476 1473 1475 1463 1450 1445 1440 1436 1434 1429 1429 1428 1426
1465 1466 1469 1470 1473 1478 1480 1482 1483 1484 1489 1496 1496 1496 1498 1499 1498 1497 1497 1495 1492 1489 1490 1498 1490 1486 1487 1489 1490 1488 1487 1481 1478 1468 1466 1460 1439 1437 1423 1424 1420 1416 1416 1418 1416
1469 1470 1472 1475 1480 1480 1480 1482 1483 1484 1497 1501 1499 1500 1500 1498 1498 1497 1496 1495 1491 1492 1492 1494 1486 1485 1484 1485 1484 1487 1474 1470 1467 1475 1469 1460 1445 1416 1414 1410 1409 1406 1403 1401 1402
1471 1472 1474 1476 1477 1480 1481 1482 1484 1486 1521 1504 1501 1500 1498 1498 1497 1495 1493 1494 1495 1493 1497 1493 1485 1483 1483 1479 1477 1476 1468 1468 1470 1476 1470 1440 1456 1416 1408 1399 1397 1396 1392 1383 1387
1476 1476 1477 1477 1478 1479 1481 1483 1487 1498 1515 1504 1500 1498 1498 1496 1497 1496 1495 1495 1492 1492 1490 1486 1480 1482 1476 1473 1471 1466 1468 1464 1467 1474 1466 1434 1449 1424 1408 1406 1397 1386 1386 1380 1382
1482 1481 1481 1480 1480 1481 1482 1485 1499 1517 1502 1506 1500 1497 1500 1498 1498 1498 1497 1497 1501 1508 1509 1487 1478 1474 1474 1475 1467 1468 1474 1490 1488 1489 1461 1433 1430 1414 1411 1404 1399 1390 1385 1381 1381
1488 1486 1485 1483 1483 1484 1484 1489 1508 1496 1500 1497 1497 1499 1502 1500 1502 1503 1502 1509 1498 1499 1502 1513 1495 1481 1473 1475 1469 1469 1469 1475 1467 1447 1435 1425 1420 1405 1410 1401 1394 1388 1384 1379 1377
1491 1490 1489 1488 1487 1487 1486 1502 1493 1493 1493 1499 1501 1513 1506 1502 1504 1512 1511 1509 1500 1498 1505 1498 1491 1471 1468 1467 1470 1466 1467 1462 1461 1454 1447 1430 1409 1411 1404 1396 1390 1383 1380 1380 1379
1495 1493 1492 1492 1490 1489 1490 1489 1492 1491 1492 1496 1509 1503 1522 1512 1514 1515 1517 1502 1499 1496 1494 1500 1499 1472 1464 1462 1465 1464 1463 1458 1459 1448 1420 1416 1416 1417 1406 1404 1395 1385 1380 1378 1375
1497 1496 1495 1494 1492 1491 1500 1494 1491 1491 1492 1493 1495 1497 1499 1507 1506 1512 1514 1504 1499 1496 1494 1495 1502 1480 1469 1470 1468 1461 1456 1452 1447 1435 1419 1417 1419 1424 1417 1405 1393 1385 1381 1378 1378
1500 1501 1499 1496 1495 1494 1500 1492 1492 1492 1492 1492 1493 1493 1494 1499 1505 1511 1510 1505 1497 1496 1496 1491 1495 1495 1472 1462 1464 1466 1457 1449 1439 1438 1434 1428 1426 1423 1415 1401 1393 1386 1382 1378 1381
1502 1504 1502 1500 1507 1503 1496 1496 1495 1493 1493 1493 1493 1492 1492 1493 1501 1498 1499 1494 1494 1495 1496 1493 1494 1493 1477 1466 1464 1464 1462 1455 1445 1444 1437 1431 1430 1426 1416 1405 1395 1386 1381 1380 1379
1504 1507 1504 1502 1504 1502 1500 1499 1499 1497 1495 1495 1494 1492 1491 1491 1492 1494 1493 1494 1493 1494 1493 1493 1492 1484 1492 1481 1479 1470 1466 1461 1452 1446 1444 1438 1437 1430 1423 1413 1404 1393 1389 1382 1377
1506 1508 1509 1513 1505 1505 1503 1501 1500 1501 1498 1496 1495 1494 1493 1493 1494 1494 1494 1494 1494 1492 1491 1492 1492 1477 1475 1473 1472 1471 1468 1463 1459 1455 1448 1447 1442 1438 1431 1423 1411 1403 1393 1392 1392
1508 1508 1508 1507 1506 1507 1508 1506 1503 1502 1503 1498 1498 1496 1495 1497 1497 1498 1496 1495 1495 1493 1494 1490 1490 1478 1474 1468 1471 1472 1471 1469 1463 1460 1455 1449 1446 1446 1438 1432 1419 1415 1409 1404 1406
1506 1507 1508 1508 1508 1509 1511 1508 1506 1504 1503 1502 1501 1500 1498 1498 1497 1495 1494 1493 1492 1492 1492 1491 1493 1486 1494 1467 1468 1479 1473 1472 1468 1464 1460 1455 1456 1450 1445 1439 1434 1428 1422 1422 1421
Wind_Speed
24 17 17 11 10 10 9 8 6 6 5 2 1 3 2 4 2 2 4 1 7 3 7 10 6 4 1 3 7 10 2 4 4 4 4 20 7 13 15 7 9 8 11 14 18
15 20 19 6 17 13 10 6 5 4 3 1 4 3 1 3 2 2 1 5 7 3 8 8 6 4 7 2 4 4 3 5 5 8 7 13 12 15 10 16 13 18 15 16 21
13 14 22 15 12 12 9 7 3 3 4 1 5 4 4 6 2 2 6 5 7 9 9 5 3 2 7 11 11 4 8 5 15 21 23 20 18 21 10 7 12 15 20 22 23
15 13 17 19 13 17 10 5 3 6 4 5 5 5 7 6 3 5 1 5 5 9 6 5 4 1 2 5 12 10 14 20 22 28 24 15 21 18 20 16 22 24 26 26 30
15 13 12 19 22 22 8 5 4 8 6 5 6 7 10 3 4 6 2 6 6 5 5 4 7 5 3 5 11 11 14 22 25 26 21 22 14 14 24 31 31 30 33 37 36
15 14 9 10 9 10 11 8 9 8 4 4 8 12 7 5 3 2 4 7 4 5 2 3 3 6 6 5 4 9 17 14 16 19 19 14 18 18 23 30 25 29 33 37 36
12 10 10 2 11 12 11 9 9 7 5 8 13 11 5 7 4 3 6 5 6 5 3 2 6 2 5 5 9 12 8 12 15 15 11 20 21 20 33 30 31 35 38 37 36
10 9 9 7 12 10 9 10 7 9 10 14 16 8 5 6 6 3 3 2 2 2 5 2 4 4 4 8 9 5 5 5 1 9 15 12 25 16 31 22 26 28 32 36 33
10 8 5 7 19 9 12 11 11 14 16 15 11 6 3 5 4 4 6 2 4 2 3 1 3 2 4 1 3 3 4 7 7 7 7 8 20 7 23 24 22 24 23 24 21
10 4 2 11 3 9 13 18 18 19 15 13 6 5 3 5 3 3 2 5 4 4 2 2 1 1 2 3 4 5 7 7 11 4 13 16 21 17 23 27 27 31 25 28 32
16 7 22 20 14 22 27 25 12 6 10 9 9 10 4 1 1 2 1 1 2 3 2 2 2 5 8 9 8 7 12 15 17 11 9 16 22 24 25 22 25 31 35 30 37
16 19 16 13 19 26 21 6 5 11 11 10 8 7 2 1 3 3 1 1 3 1 3 2 6 9 9 11 8 7 8 12 14 9 8 16 23 22 22 23 30 34 30 30 38
14 16 16 13 18 18 9 8 14 13 7 4 6 4 2 2 2 3 2 5 4 3 5 5 7 8 11 8 9 10 9 13 14 17 14 18 28 22 23 25 35 39 40 39 38
15 17 14 15 13 10 6 7 14 4 4 4 2 1 2 2 2 1 2 4 5 3 4 5 6 8 9 10 7 14 12 17 15 6 8 6 15 24 21 21 21 33 37 41 43
17 15 10 7 13 5 5 9 10 1 5 1 0 1 1 1 1 3 7 2 3 4 4 6 5 5 7 8 7 9 5 9 5 4 7 19 6 8 12 14 9 8 23 33 41
14 12 10 11 8 9 8 7 7 5 3 1 1 1 2 5 3 8 4 3 9 4 6 14 16 5 7 4 8 11 9 11 3 3 6 15 9 5 4 10 13 13 21 9 31
9 7 6 7 9 10 13 6 4 6 2 3 2 1 2 3 3 6 5 3 3 6 5 6 3 1 2 5 4 2 2 4 5 2 6 4 4 8 11 17 11 16 23 22 14
6 6 6 9 9 10 2 3 8 4 2 0 2 4 3 4 3 5 5 2 3 1 3 2 7 0 1 4 5 2 2 2 5 3 8 10 5 3 5 16 17 20 24 17 6
9 7 7 6 7 2 2 5 2 4 4 4 4 6 4 1 1 4 2 2 3 2 2 5 5 3 7 5 3 1 3 2 4 5 4 5 5 0 13 17 16 13 6 10 7
10 8 7 3 2 7 3 5 3 5 6 4 4 4 3 3 3 4 0 3 4 2 3 2 5 5 6 2 5 5 2 3 3 4 3 3 4 9 22 19 16 11 5 7 9
9 5 4 7 9 3 3 3 4 5 4 3 3 2 3 3 2 0 3 4 2 5 4 3 3 7 4 4 5 4 5 3 4 4 4 4 4 8 15 14 11 10 8 3 10
11 3 8 10 4 3 2 1 8 5 2 1 2 3 2 4 1 1 2 6 3 3 5 4 3 4 6 4 5 2 5 5 2 6 3 3 4 15 13 14 11 9 8 1 3
8 6 8 12 3 3 2 4 6 2 3 3 2 2 1 2 2 3 4 5 4 1 0 3 3 5 8 3 3 4 9 13 6 2 11 3 5 15 15 19 27 22 19 21 15
4 3 6 6 6 1 3 1 2 6 3 2 0 2 2 3 4 3 1 4 4 2 6 1 3 3 2 3 3 6 10 13 9 3 7 10 9 16 18 19 22 25 30 34 42
5 2 2 3 7 5 5 2 2 3 4 3 2 3 3 2 5 2 4 3 2 3 3 3 3 3 5 6 3 4 9 13 12 11 7 10 10 16 16 18 23 31 37 40 42
3 4 5 5 10 7 5 5 2 1 5 4 2 4 5 3 2 2 4 2 1 4 1 1 3 4 4 6 3 3 9 9 9 11 5 10 7 13 21 25 30 31 34 35 40
4 1 2 3 5 3 3 3 4 3 2 4 5 4 3 1 5 8 9 10 6 2 2 1 1 4 4 6 3 4 2 4 3 10 7 6 5 10 16 18 25 28 30 33 34
Wind_Direction
276 274 319 252 255 251 262 253 255 281 286 259 197 180 83 162 126 112 49 132 183 280 137 138 143 138 189 257 252 267 232 223 243 247 266 296 326 320 327 350 333 314 303 287 290
316 261 264 285 239 252 249 240 250 288 180 241 158 162 284 168 167 144 272 226 257 259 143 146 172 192 202 223 234 198 203 231 252 284 286 293 317 314 319 323 318 314 294 286 290
327 293 270 288 239 223 234 218 231 217 170 171 149 126 135 146 110 151 192 213 270 175 158 126 154 286 230 230 216 226 243 263 280 280 289 292 297 301 298 288 290 301 297 288 292
334 321 284 248 338 224 215 186 194 165 154 181 153 131 153 146 92 122 39 184 191 178 167 158 210 167 238 237 239 243 243 243 256 266 276 274 288 280 278 274 286 283 281 285 284
338 328 321 253 290 194 180 170 178 160 170 167 160 138 138 119 125 166 148 146 150 155 163 200 243 243 231 267 278 257 249 248 251 252 272 292 281 271 270 276 278 276 276 275 273
342 329 327 310 263 168 179 166 161 158 165 156 152 142 132 122 100 138 162 147 133 171 165 237 265 274 302 294 278 299 308 302 299 301 296 288 286 287 273 277 280 274 270 268 270
346 335 321 287 196 186 150 145 154 135 132 131 142 136 88 103 161 215 186 185 204 175 147 209 258 257 331 315 327 324 318 307 286 281 273 287 278 262 271 274 272 269 267 262 259
329 332 340 331 201 170 119 130 120 117 124 124 130 117 113 170 174 188 136 201 30 191 182 343 265 260 276 284 320 307 287 272 272 257 264 244 261 263 271 273 272 274 276 264 260
324 333 5 119 158 135 125 124 114 111 115 116 127 97 73 110 139 160 206 179 179 133 149 167 311 226 303 190 330 270 258 268 294 272 299 266 274 300 294 268 265 273 271 276 270
325 305 170 157 153 99 124 111 112 111 95 81 97 92 86 95 158 207 257 195 178 189 190 240 228 13 337 117 234 247 280 272 274 303 313 295 282 277 268 276 277 281 270 274 278
13 139 126 157 140 134 129 124 117 103 77 62 81 90 98 83 75 66 246 11 164 167 212 169 101 214 226 232 244 259 265 270 273 270 266 271 278 279 278 266 269 266 271 266 268
76 104 122 99 128 136 133 101 120 131 84 83 80 72 115 240 221 184 257 280 204 248 73 349 247 241 248 258 266 269 271 273 282 276 262 277 269 278 278 267 258 260 260 258 258
78 109 115 108 120 134 119 100 129 132 92 54 49 28 30 309 33 135 344 306 250 270 263 198 247 312 301 288 283 271 261 272 264 287 270 274 275 267 258 261 259 258 256 253 250
96 108 100 105 117 122 98 132 160 136 83 19 35 322 288 293 127 107 346 8 346 348 352 271 271 249 266 263 255 275 233 255 270 292 284 133 292 287 274 260 254 261 255 245 239
117 120 93 86 124 118 108 150 177 319 74 227 120 281 301 255 176 338 8 51 238 261 81 257 284 264 263 255 256 253 278 292 269 240 334 278 246 271 304 268 276 270 306 254 224
108 127 91 105 95 95 111 133 133 48 76 280 169 277 43 37 47 354 259 256 269 289 238 252 264 272 247 272 251 279 306 286 276 146 255 266 222 283 321 318 304 306 309 283 213
77 80 86 88 91 109 119 120 63 79 46 290 189 185 169 37 34 10 338 18 48 16 351 320 261 143 33 318 313 134 346 324 349 360 238 164 230 252 312 303 274 290 302 303 254
50 32 72 100 104 131 60 79 73 87 145 83 75 29 71 35 46 352 343 28 320 144 303 17 337 333 183 217 270 293 182 158 292 285 297 300 242 243 308 316 315 277 279 287 250
15 42 63 92 127 105 70 57 117 147 118 129 37 58 334 64 303 62 330 234 268 104 52 350 277 287 234 191 193 356 209 170 264 257 252 266 276 126 323 341 342 334 274 255 175
15 21 38 44 320 332 58 103 108 161 112 111 132 169 205 285 57 69 349 279 311 31 145 277 296 245 300 25 198 218 289 233 208 293 293 297 325 336 334 331 325 340 295 220 210
352 357 42 332 324 15 106 111 106 118 159 174 178 189 169 181 187 285 239 289 274 312 312 186 134 297 337 346 314 328 310 228 251 288 316 319 6 336 318 325 307 320 358 291 248
15 24 359 350 35 20 9 29 130 156 156 184 41 7 57 163 159 41 219 207 244 311 316 222 200 278 257 208 143 287 317 318 316 336 303 315 344 339 327 340 338 328 342 297 244
6 338 3 357 63 2 349 17 44 54 43 24 100 340 59 126 37 226 206 239 239 333 27 310 287 328 347 12 47 2 356 358 335 300 11 348 354 339 1 3 2 357 63 62 72
21 13 339 351 340 253 114 76 23 25 23 6 296 263 289 212 194 206 308 208 191 211 306 216 272 175 178 279 278 355 1 358 355 350 332 21 345 0 4 3 2 12 50 43 52
34 22 20 315 342 16 22 355 111 351 343 325 254 41 10 342 354 106 10 354 206 245 277 169 284 303 274 228 197 42 9 5 12 359 18 334 6 23 13 11 2 29 30 38 46
46 31 357 329 338 353 5 343 6 357 8 335 28 346 63 78 83 318 14 31 256 314 205 205 283 303 289 247 138 41 21 2 5 360 338 352 37 19 20 31 22 21 27 34 39
51 13 336 333 345 41 303 352 346 15 322 340 332 351 55 355 303 285 288 288 245 234 254 234 322 343 284 312 1 357 17 31 349 8 349 3 27 30 29 25 28 21 30 36 39